[[{"header":{"parameterUnit":"m.s-1","parameterCategory":1,"la1":30.2991,"la2":30.254,"lo1":-89.0895,"lo2":-89.0444,"dy":0.0017,"dx":0.0017,"nx":28,"ny":28,"refTime":"2024-10-17T21:00:00:Z","depth":0,"parameterNumber":2,"parameterNumberName":"U-component_of_WINDS"},"data":[0,0,0,0,0,0,0,0,0,0,0,0,0,0,0,0,0,0,0,0,0,0,0,0,0,0,0,0,0,0,0,0,0,0,0,0,0,0,0,0,0,0,0,0,0,0,0,0,0,0,0,0,0,0,0,0,0,0,-5.7811,-5.7811,0,-5.782,-5.782,-5.782,-5.7686,-5.7682,-5.7678,-5.7675,-5.7686,-5.769,-5.7693,0,0,0,0,0,0,0,0,0,0,0,0,0,-5.7682,-5.7685,-5.7811,-5.7811,-5.7811,-5.782,-5.782,-5.782,-5.7686,-5.7682,-5.7677,-5.7673,-5.7685,-5.7689,-5.7694,0,0,0,0,0,0,0,0,0,0,0,0,0,-5.7719,-5.7686,-5.7811,-5.7746,-5.774,-5.782,-5.782,-5.782,-5.7687,-5.7682,-5.7676,-5.7671,-5.7684,-5.7689,-5.7694,-5.7839,0,0,-5.7711,-5.7714,0,0,0,0,0,0,0,0,-5.7717,-5.7724,-5.7755,-5.775,-5.7744,-5.7746,-5.7778,-5.7826,-5.7689,-5.7707,-5.7675,-5.7668,-5.7711,-5.7714,-5.7727,-5.7839,-5.784,-5.7712,-5.7715,-5.7718,-5.7719,0,0,0,0,0,0,0,-5.7715,-5.7723,-5.7815,-5.7756,-5.7749,-5.7717,-5.7716,-5.7787,-5.774,-5.7705,-5.7695,-5.7698,-5.7707,-5.7722,-5.7727,-5.784,-5.7712,-5.7717,-5.772,-5.7722,-5.8072,-5.8077,0,0,0,0,0,0,-5.7721,-5.7722,-5.7814,-5.7815,-5.7717,-5.7724,-5.7723,-5.7751,-5.7739,-5.7731,-5.7703,-5.7692,-5.7716,-5.772,-5.7727,-5.7895,-5.7718,-5.7723,-5.7726,-5.8066,-5.8073,-5.8079,0,0,0,0,0,0,-5.7719,-5.773,-5.7814,-5.7766,-5.7774,-5.7732,-5.7764,-5.7754,-5.7769,-5.7737,-5.7728,-5.7727,-5.7711,-5.7719,-5.7812,-5.7893,-5.7725,-5.773,-5.8059,-5.8068,-5.8076,-5.8232,0,0,0,0,0,0,-5.7715,-5.773,-5.7784,-5.7768,-5.7777,-5.7899,-5.7769,-5.7758,-5.7779,-5.7765,-5.7757,-5.7751,-5.7708,-5.7804,-5.7817,-5.7898,-5.7735,-5.8051,-5.8063,-5.8073,-5.822,-5.8246,-5.8268,0,0,0,0,0,-5.7711,-5.7828,-5.7787,-5.7799,-5.7843,-5.7903,-5.7909,-5.7856,-5.7786,-5.784,-5.782,-5.7751,-5.7883,-5.7815,-5.7829,-5.7912,-5.8046,-5.8059,-5.8072,-5.8209,-5.8241,-5.8267,0,0,0,0,0,0,-5.7854,-5.7824,-5.7779,-5.7893,-5.7902,-5.788,-5.7946,-5.7891,-5.7919,-5.7905,-5.7839,-5.7839,-5.7943,-5.7937,-5.7862,-5.8052,-5.7952,-5.7969,-5.8051,-5.8081,-5.8105,-5.8103,-5.7739,0,0,0,0,0,-5.7899,-5.795,-5.7921,-5.8025,-5.8032,-5.7989,-5.8014,-5.7972,-5.7979,-5.7982,-5.7968,-5.7978,-5.8021,-5.8051,-5.8089,-5.8219,-5.8216,-5.8283,-5.8307,-5.8327,-5.8342,-5.8412,-5.8441,-5.8123,-5.8123,-5.8123,0,0,-5.7992,-5.7982,-5.8018,-5.8054,-5.8055,-5.8111,-5.7993,-5.8056,-5.8097,-5.7991,-5.8078,-5.8069,-5.8076,-5.8188,-5.8237,-5.8186,-5.843,-5.8344,-5.836,-5.8364,-5.8428,-5.8459,-5.8485,-5.8132,-5.8131,-5.8129,0,0,-5.8189,-5.8187,-5.8273,-5.8278,-5.8282,-5.8253,-5.8275,-5.8262,-5.8252,-5.8338,-5.8261,-5.8309,-5.8385,-5.8393,-5.8407,-5.8611,-5.855,-5.8626,-5.875,-5.8819,-5.8844,-5.8866,-5.8938,-5.8965,-5.8641,-5.8641,-5.8642,0,-5.8304,-5.8383,-5.8325,-5.8394,-5.8412,-5.832,-5.8408,-5.8415,-5.8433,-5.8448,-5.8391,-5.8486,-5.8484,-5.8597,-5.8647,-5.8662,-5.8685,-5.8625,-5.8845,-5.8866,-5.8886,-5.8954,-5.8982,-5.865,-5.8649,-5.8648,-5.8648,0,-5.8525,-5.8581,-5.8651,-5.8669,-5.8696,-5.8774,-5.8729,-5.8763,-5.8721,-5.8699,-5.8789,-5.8783,-5.8819,-5.8844,-5.8803,-5.8952,-5.8921,-5.8856,-5.8754,-5.8926,-5.899,-5.9016,-5.8664,-5.866,-5.8657,-5.8655,0,0,-5.881,-5.8797,-5.8823,-5.8831,-5.883,-5.8873,-5.8949,-5.8983,-5.9014,-5.903,-5.9092,-5.916,-5.91,-5.9116,-5.9076,-5.9136,-5.9299,-5.9063,-5.9062,-5.9107,-5.9464,-5.9512,-5.9544,-5.9259,-5.9264,-5.9267,-5.9463,0,-5.9002,-5.9127,-5.9078,-5.9209,-5.9261,-5.9175,-5.9241,-5.9249,-5.9231,-5.9273,-5.9254,-5.9303,-5.922,-5.9229,-5.9285,-5.9267,-5.9369,-5.9252,-5.9316,-5.9319,-5.9316,-5.9577,-5.9628,-5.9813,-5.9488,-5.9492,-5.9495,0,-5.9241,-5.9267,-5.9402,-5.9394,-5.9414,-5.9473,-5.9502,-5.9544,-5.9551,-5.9534,-5.9554,-5.9501,-5.9576,-5.9476,-5.9578,-5.95,-5.9524,-5.9519,-5.9525,-5.9528,-5.9417,-5.9586,-5.987,-5.9898,-5.9534,-5.9531,-5.9528,0,-5.9435,-5.9504,-5.9594,-5.9603,-5.9596,-5.964,-5.9639,-5.9641,-5.9666,-5.9692,-5.9707,-5.9743,-5.9762,-5.9791,-5.9749,-5.968,-5.9858,-5.9754,-5.9846,-5.9848,-5.9886,-5.9884,-6.0177,-5.9904,-5.9903,-5.9903,-5.9902,0,-5.9654,-5.974,-5.9681,-5.9736,-5.9831,-5.9775,-5.9871,-5.9861,-5.9864,-5.9917,-5.9846,-5.9898,-5.984,-5.9887,-5.9856,-5.9946,-5.9955,-5.9944,-5.9934,-5.995,-5.9951,-5.9963,-5.9949,-5.991,-5.9908,-5.9907,-5.9906,0,-5.9885,-5.9849,-5.9942,-5.9928,-5.9927,-5.9997,-5.9985,-6.0037,-6.0015,-6.0083,-6.0096,-6.0062,-6.0113,-6.0075,-6.0127,-6.0105,-6.0224,-6.0197,-6.0221,-6.0213,-6.0307,-6.0299,-6.0618,-6.0657,-6.0359,-6.0362,-6.0364,0,-6.0026,-6.0091,-6.0084,-6.0114,-6.0118,-6.0167,-6.0192,-6.0141,-6.017,-6.0185,-6.0235,-6.0281,-6.0314,-6.0401,-6.0381,-6.042,-6.0393,-6.0502,-6.0398,-6.0412,-6.0394,-6.0391,-6.0397,-6.0523,-6.0526,-6.0529,-6.0532,0,-6.0281,-6.026,-6.0298,-6.0332,-6.0364,-6.0387,-6.0405,-6.0435,-6.0383,-6.042,-6.0471,-6.0497,-6.055,-6.0596,-6.0629,-6.0629,-6.0573,-6.0565,-6.0588,-6.0604,-6.0615,-6.061,-6.0278,-6.0557,-6.0555,-6.0553,-6.0552,-6.055,-6.0471,-6.0524,-6.0528,-6.0574,-6.0582,-6.0602,-6.0649,-6.0634,-6.0676,-6.0714,-6.0682,-6.0744,-6.0752,-6.079,-6.0798,-6.0847,-6.0802,-6.0836,-6.0844,-6.0853,-6.0866,-6.0609,-6.0853,-6.0852,-6.0851,-6.085,-6.085,0,-6.0721,-6.072,-6.0762,-6.079,-6.0827,-6.0771,-6.0789,-6.0823,-6.0878,-6.0891,-6.0925,-6.0986,-6.1031,-6.1016,-6.1057,-6.1099,-6.1074,-6.1111,-6.1107,-6.1108,-6.0904,-6.0879,-6.113,-6.113,-6.113,-6.113,-6.113,-6.113,-6.0855,-6.0943,-6.0924,-6.1016,-6.1014,-6.1074,-6.1089,-6.1107,-6.1116,-6.1187,-6.1224,-6.1214,-6.1216,-6.1256,-6.1296,-6.1291,-6.1309,-6.1355,-6.1341,-6.115,-6.1122,-6.1096,-6.1072,-6.136,-6.136,-6.1541,-6.1542,-6.1544]},{"header":{"parameterUnit":"m.s-1","parameterCategory":1,"la1":30.2991,"la2":30.254,"lo1":-89.0895,"lo2":-89.0444,"dy":0.0017,"dx":0.0017,"nx":28,"ny":28,"refTime":"2024-10-17T21:00:00:Z","depth":0,"parameterNumber":3,"parameterNumberName":"V-component_of_WINDS"},"data":[0,0,0,0,0,0,0,0,0,0,0,0,0,0,0,0,0,0,0,0,0,0,0,0,0,0,0,0,0,0,0,0,0,0,0,0,0,0,0,0,0,0,0,0,0,0,0,0,0,0,0,0,0,0,0,0,0,0,-0.8529,-0.8529,0,-0.8531,-0.8531,-0.8531,-0.8474,-0.8473,-0.8471,-0.847,-0.8474,-0.8476,-0.8477,0,0,0,0,0,0,0,0,0,0,0,0,0,-0.8478,-0.8479,-0.8529,-0.8529,-0.8529,-0.8531,-0.8531,-0.8531,-0.8475,-0.8473,-0.8471,-0.8469,-0.8474,-0.8475,-0.8477,0,0,0,0,0,0,0,0,0,0,0,0,0,-0.8492,-0.848,-0.8529,-0.8501,-0.8499,-0.8531,-0.8531,-0.8531,-0.8475,-0.8473,-0.8471,-0.8468,-0.8473,-0.8475,-0.8478,-0.8537,0,0,-0.8485,-0.8486,0,0,0,0,0,0,0,0,-0.8491,-0.8494,-0.8505,-0.8503,-0.85,-0.85,-0.8514,-0.8533,-0.8476,-0.8484,-0.847,-0.8467,-0.8485,-0.8486,-0.8491,-0.8537,-0.8537,-0.8485,-0.8486,-0.8487,-0.8488,0,0,0,0,0,0,0,-0.8491,-0.8494,-0.853,-0.8505,-0.8503,-0.8489,-0.8488,-0.8518,-0.8497,-0.8483,-0.8479,-0.848,-0.8483,-0.8489,-0.8491,-0.8538,-0.8485,-0.8487,-0.8488,-0.8489,-0.8631,-0.8633,0,0,0,0,0,0,-0.8493,-0.8493,-0.853,-0.853,-0.849,-0.8492,-0.8491,-0.8502,-0.8497,-0.8494,-0.8482,-0.8477,-0.8486,-0.8488,-0.8491,-0.856,-0.8487,-0.8489,-0.8491,-0.8629,-0.8632,-0.8634,0,0,0,0,0,0,-0.8492,-0.8497,-0.853,-0.851,-0.8513,-0.8495,-0.8508,-0.8504,-0.851,-0.8496,-0.8492,-0.8492,-0.8485,-0.8488,-0.8526,-0.8559,-0.849,-0.8492,-0.8626,-0.863,-0.8633,-0.8698,0,0,0,0,0,0,-0.8491,-0.8497,-0.8519,-0.8511,-0.8515,-0.8564,-0.851,-0.8505,-0.8514,-0.8508,-0.8504,-0.8501,-0.8483,-0.8522,-0.8528,-0.8561,-0.8494,-0.8623,-0.8628,-0.8632,-0.8693,-0.8704,-0.8713,0,0,0,0,0,-0.8489,-0.8538,-0.8521,-0.8525,-0.8542,-0.8566,-0.8568,-0.8546,-0.8517,-0.8539,-0.853,-0.8502,-0.8554,-0.8527,-0.8532,-0.8567,-0.8621,-0.8626,-0.8631,-0.8689,-0.8702,-0.8713,0,0,0,0,0,0,-0.8552,-0.8537,-0.8517,-0.8565,-0.8567,-0.8557,-0.8584,-0.856,-0.8572,-0.8566,-0.8538,-0.8537,-0.858,-0.8577,-0.8546,-0.8623,-0.8582,-0.8589,-0.8624,-0.8636,-0.8646,-0.8646,-0.8496,0,0,0,0,0,-0.8571,-0.8592,-0.8577,-0.8621,-0.8623,-0.8604,-0.8613,-0.8595,-0.8597,-0.8598,-0.8591,-0.8594,-0.8611,-0.8623,-0.8638,-0.8692,-0.869,-0.8718,-0.8728,-0.8736,-0.8743,-0.877,-0.8782,-0.8652,-0.8652,-0.8652,0,0,-0.8612,-0.8606,-0.8621,-0.8633,-0.8633,-0.8655,-0.8605,-0.8631,-0.8646,-0.8602,-0.8637,-0.8632,-0.8634,-0.8679,-0.8699,-0.8678,-0.8778,-0.8743,-0.875,-0.8752,-0.8777,-0.8789,-0.88,-0.8656,-0.8655,-0.8654,0,0,-0.8697,-0.8694,-0.873,-0.873,-0.8729,-0.8716,-0.8724,-0.8717,-0.8712,-0.8746,-0.8713,-0.8731,-0.8762,-0.8764,-0.8769,-0.8852,-0.8827,-0.8858,-0.891,-0.8937,-0.8947,-0.8956,-0.8986,-0.8997,-0.8864,-0.8865,-0.8865,0,-0.8748,-0.8779,-0.8752,-0.8779,-0.8785,-0.8744,-0.878,-0.8782,-0.8787,-0.8792,-0.8768,-0.8804,-0.8802,-0.8848,-0.8868,-0.8873,-0.8882,-0.8859,-0.8948,-0.8957,-0.8965,-0.8993,-0.9004,-0.8868,-0.8868,-0.8868,-0.8867,0,-0.8841,-0.8863,-0.8892,-0.8896,-0.8905,-0.8937,-0.8915,-0.8928,-0.8908,-0.8897,-0.8932,-0.8928,-0.8941,-0.8951,-0.8933,-0.8993,-0.898,-0.8953,-0.8911,-0.8981,-0.9007,-0.9018,-0.8874,-0.8872,-0.8871,-0.887,0,0,-0.8968,-0.8955,-0.8966,-0.8967,-0.8962,-0.8979,-0.9008,-0.9019,-0.9031,-0.9035,-0.9059,-0.9085,-0.9058,-0.9064,-0.9046,-0.907,-0.9136,-0.9039,-0.9038,-0.9057,-0.9202,-0.9223,-0.9236,-0.9118,-0.912,-0.9121,-0.9202,0,-0.905,-0.9099,-0.9074,-0.9126,-0.9146,-0.9106,-0.9131,-0.9131,-0.9121,-0.9137,-0.9126,-0.9144,-0.9109,-0.9112,-0.9133,-0.9123,-0.9164,-0.9117,-0.9141,-0.9142,-0.9142,-0.9249,-0.9272,-0.9348,-0.9212,-0.9213,-0.9215,0,-0.9153,-0.916,-0.9214,-0.9204,-0.9211,-0.9235,-0.9242,-0.9257,-0.9256,-0.9247,-0.9253,-0.9229,-0.9257,-0.9214,-0.9253,-0.9221,-0.9229,-0.9225,-0.9228,-0.923,-0.9183,-0.9255,-0.9372,-0.9384,-0.923,-0.9229,-0.9228,0,-0.924,-0.9263,-0.9297,-0.9299,-0.9289,-0.9306,-0.9303,-0.9299,-0.9307,-0.9314,-0.9319,-0.933,-0.9336,-0.9345,-0.9324,-0.9295,-0.9365,-0.9321,-0.9359,-0.936,-0.9376,-0.9376,-0.9497,-0.9381,-0.9381,-0.938,-0.938,0,-0.9335,-0.937,-0.9336,-0.9358,-0.9395,-0.9366,-0.9404,-0.9396,-0.9393,-0.9412,-0.9379,-0.9398,-0.9369,-0.9385,-0.9369,-0.9403,-0.9406,-0.94,-0.9395,-0.9403,-0.9404,-0.9409,-0.9403,-0.9383,-0.9383,-0.9382,-0.9382,0,-0.9439,-0.9418,-0.9454,-0.944,-0.9437,-0.9465,-0.9454,-0.9473,-0.946,-0.9485,-0.9489,-0.9469,-0.9486,-0.9465,-0.9481,-0.947,-0.9517,-0.9504,-0.9517,-0.9513,-0.9552,-0.9549,-0.9681,-0.9697,-0.9571,-0.9572,-0.9573,0,-0.9502,-0.9527,-0.9515,-0.9525,-0.9524,-0.954,-0.9548,-0.952,-0.9529,-0.9529,-0.9548,-0.9562,-0.9572,-0.9601,-0.9589,-0.96,-0.9588,-0.9633,-0.959,-0.9596,-0.9589,-0.9588,-0.959,-0.9643,-0.9644,-0.9645,-0.9646,0,-0.9615,-0.9603,-0.9614,-0.9622,-0.9631,-0.9636,-0.9639,-0.9649,-0.962,-0.9632,-0.9648,-0.9656,-0.9671,-0.9685,-0.9693,-0.969,-0.9664,-0.966,-0.9669,-0.9678,-0.9685,-0.9682,-0.9542,-0.9657,-0.9656,-0.9656,-0.9655,-0.9654,-0.97,-0.972,-0.9715,-0.9728,-0.9727,-0.973,-0.9747,-0.9735,-0.9748,-0.9757,-0.974,-0.9761,-0.9758,-0.9765,-0.9765,-0.9781,-0.9761,-0.9775,-0.9779,-0.9783,-0.9788,-0.9681,-0.9782,-0.9782,-0.9781,-0.9781,-0.9781,0,-0.9811,-0.9805,-0.9818,-0.9822,-0.9832,-0.9805,-0.9806,-0.9817,-0.9835,-0.9834,-0.9844,-0.9862,-0.9875,-0.9863,-0.9874,-0.9889,-0.9877,-0.9893,-0.9892,-0.9891,-0.9805,-0.9796,-0.9902,-0.9902,-0.9902,-0.9902,-0.9902,-0.9902,-0.9871,-0.9903,-0.989,-0.9921,-0.9915,-0.9934,-0.9936,-0.9939,-0.9938,-0.9959,-0.997,-0.9961,-0.9955,-0.9965,-0.9976,-0.9972,-0.9978,-0.9998,-0.999,-0.9909,-0.9898,-0.9886,-0.9878,-0.9999,-0.9999,-1.0074,-1.0075,-1.0076]}]]